Погода в Аваруа

Острова Кука     21°12′27″S   159°46′37″W
темп.,
°C
ветер,
м/с
пор.,
м/с
влажн.,
%
обл.,
%
осадки,
мм/ч
давл.,
гПа
погр.,
м
13 августа, сб
сб1323:00+24сз57875 1.1 1016532
02:00+24зсз57850 2.5 1015530
05:00+24з45810 0.3 1014489
08:00+24з34827 0.3 1016476
11:00+23юз22850 1.9 1017220
14:00+23ююз22821 3.2 1015277
17:00+23ю879094 1.4 1015558
20:00+22ю988499 1.9 1017685
14 августа, вс
вс1423:00+22ююв777790 0.1 1017766
02:00+22ююв557576 0.1 1017618
05:00+22ююв5576100 0.0 1017766
08:00+22ююв657999 0.1 1018658
11:00+22ююв6679100 0.0 1019686
14:00+23ююв7778100 0.1 1018796
17:00+22ююв10108199 1.1 1018917
20:00+22ююв121279100 1.8 1020996
15 августа, пн
пн1523:00+22ююв12127899 0.3 10211028
02:00+22ююв121378100 0.8 10211142
05:00+21ююв131375100 0.8 10201192
08:00+22юв13137198 0.9 10221302
11:00+22юв131370100 0.1 10241329
14:00+22юв14146899 0.2 10221415
17:00+21юв131365100 0.1 10211545
20:00+21юв141467100 0.1 10231714
16 августа, вт
вт1623:00+21юв141461100 0.1 10231919
02:00+21юв131563100 0.3 10221683
05:00+21юв14155534 0.0 10212101
08:00+22юв1515568 0.0 10232218
11:00+22юв1415553 0.0 10232238
14:00+21юв14155999 0.1 10212012
17:00+22юв13155410 0.1 10192110
20:00+21юв151665100 0.2 10211933
17 августа, ср
ср1723:00+22юв1315558 0.0 10212034
02:00+20юв13147115 0.4 10191308
05:00+21юв13146680 0.6 10171630
08:00+20юв141571100 1.9 10181614
11:00+20юв141672100 1.8 10181608
14:00+21юв151672100 5.0 10151461
17:00+21юв141571100 2.2 10131402
20:00+22юв13146894 2.4 10131480